Regional Weather Roundup
Issued by NWS Upton, NY

Current Version | Previous Version | Text Only | Print | Product List | Glossary Off
Versions: 1 2 3 4 5 6 7 8 9 10 11 12 13 14 15 16 17 18 19 20 21 22 23 24 25 26 27 28

000
ASUS41 KOKX 210508
RWROKX

REGIONAL WEATHER ROUNDUP
NATIONAL WEATHER SERVICE NEW YORK NY
100 AM EDT SAT OCT 21 2017

NOTE: "FAIR" INDICATES FEW OR NO CLOUDS BELOW 12,000 FEET WITH NO
SIGNIFICANT WEATHER AND/OR OBSTRUCTIONS TO VISIBILITY.

NYZ071-072-176-178-NJZ106-104-210600-
NEW YORK CITY METRO AREA

CITY           SKY/WX    TMP DP  RH WIND       PRES   REMARKS
Central Park   CLEAR     62  36  37 CALM      30.25R
Bronx Bot Gard   N/A     59  34  38 CALM      30.24R
LaGuardia APRT CLEAR     65  39  38 N5        30.21R
Kennedy INTL   CLEAR     62  36  37 NW6       30.23R
Breezy Point     N/A     63 N/A N/A NW5         N/A
Newark/Liberty CLEAR     59  39  47 CALM      30.22S
Teterboro      CLEAR     54  41  61 S3        30.22R
$$

NYZ177-179-078>081-210600-
LONG ISLAND NEW YORK

CITY           SKY/WX    TMP DP  RH WIND       PRES   REMARKS
Jones Beach      N/A     61 N/A N/A NW5         N/A
Matinecock PT    N/A     63 N/A N/A N3          N/A
Farmingdale    CLEAR     54  43  66 CALM      30.22R
MacArthur/ISP  CLEAR     50  46  86 CALM      30.21S
Shirley        CLEAR     49  44  83 NW3       30.22R
Mt Sinai Harb    N/A    N/A N/A N/A S1          N/A
Westhampton    CLEAR     43  38  82 CALM      30.23R
East Hampton   FAIR      46  44  93 CALM      30.20R
Montauk          N/A     63  48  58 NW8       30.20R
$$

NYZ052-065-067-210600-
HUDSON VALLEY

CITY           SKY/WX    TMP DP  RH WIND       PRES   REMARKS
White Plains   CLEAR     52  38  58 NW5       30.21S
Larchmont Harb   N/A     61 N/A N/A NW6         N/A
Croton On Huds   N/A     52 N/A N/A NE2         N/A
Newburgh       CLEAR     50  39  66 W7        30.24R
Montgomery     CLEAR     48  38  68 E3        30.22S
Poughkeepsie   CLEAR     42  39  89 CALM      30.22R
Albany         CLEAR     49  37  63 W3        30.23R
$$

NJZ001-105-106-008-010-013-015-019>022-104-210600-
NEW JERSEY

CITY           SKY/WX    TMP DP  RH WIND       PRES   REMARKS
Newark/Liberty CLEAR     59  39  47 CALM      30.22S
Teterboro      CLEAR     54  41  61 S3        30.22R
Caldwell       CLEAR     49  43  80 CALM      30.24R
Somerville     CLEAR     44  41  89 CALM      30.23R
Linden         FAIR      56  38  50 CALM      30.23R
Perth Amboy      N/A     57 N/A N/A W5          N/A
Sussex         CLEAR     42  40  92 CALM      30.24S
Andover          N/A     44  42  93 CALM      30.25R
Trenton        CLEAR     54  39  57 NW7       30.24R
Millville      CLEAR     48  45  89 CALM      30.25R
Atlantic City  PTCLDY    53  43  68 NW6       30.24R
Wrightstown    CLEAR     49  43  77 CALM      30.22R
Toms River       N/A     43  39  86 CALM      30.24S
Belmar         CLEAR     53  40  61 SW3       30.24R
$$

PAZ047>061-062-071-210600-
EASTERN PENNSYLVANIA

CITY           SKY/WX    TMP DP  RH WIND       PRES   REMARKS
Philadelphia   CLEAR     57  45  64 W5        30.25R
Allentown      CLEAR     49  40  71 NW6       30.26R
Scranton       CLEAR     49  36  61 SE5       30.26R
$$

CTZ002-004>006-009-010-012-RIZ004-006-007-MAZ004-011-015-210600-
SOUTHERN NEW ENGLAND
 IN CT

CITY           SKY/WX    TMP DP  RH WIND       PRES   REMARKS
Bradley INTL   PTCLDY    51  38  60 CALM      30.21R
Hartford       PTCLDY    47  44  90 CALM      30.22R
Danbury        CLEAR     45  41  86 CALM      30.24R
Wtrbury/Oxford CLEAR     48  37  65 E3        30.24R
Norwalk Harbor   N/A     55 N/A N/A N3          N/A
Bridgeport     CLEAR     51  41  68 SE3       30.22R
Meriden        CLEAR     43  40  89 CALM      30.23R
New Haven      CLEAR     46  40  79 N5        30.22R
Chester        FAIR      55  37  50 NW5       30.21R
Groton         CLEAR     49  44  83 N3        30.19R
Wilimantic     CLEAR     42  39  89 NE5       30.22R

 IN RI

CITY           SKY/WX    TMP DP  RH WIND       PRES   REMARKS
Providence     CLEAR     55  41  59 W5        30.19R
Block Island   CLEAR     60  46  59 NW10      30.19R
Westerly       CLEAR     56  41  57 N5        30.19R
 IN MA

CITY           SKY/WX    TMP DP  RH WIND       PRES   REMARKS
Boston         CLEAR     60  35  39 NW7       30.17R
Worcester      CLEAR     55  31  39 W12       30.20R
Westfield      CLEAR     44  40  85 CALM      30.21R
Provincetown   CLEAR     58  49  72 N7        30.16R
Nantucket      CLEAR     59  47  64 NW9       30.16R
$$

ANZ330-335-338-340-345-350-353-355-210600-
COASTAL MARINE OBSERVATIONS


STATION/POSITION TIME  SKY/WX   TEMP    WIND        PRES    VSBY  WAVE
                                AIR SEA DIR/SP/G                  HT/PER
                 (UTC)          (F)     (DEG/KT/KT) (MB)    (MI)  (FT/S)
NY HARB ENTRANCE 0350            65 64  300/ 10/ 12 1022.4          2/ 8
20 S FIRE ISLAND 0350            65 64  300/  6/  8 1023.0          2/ 9
GREAT SOUTH BAY  0415            59 62  330/  4/  4   N/A
15 E BARNEGAT LI NOT AVBL
HUDSON CANYON    0450            66 65  320/  8/ 10 1022.4          2/ 9
KINGS POINT      0430            64 65   60/  4/  6 1023.8
EXECUTION ROCKS  0430            64     340/  4/  6   N/A
WESTERN LI SOUND 0349            63     270/  2/  4   N/A           0
CENTRAL LI SOUND NOT AVBL
EASTERN LI SOUND NOT AVBL
ROBBINS REEF     0436            64     320/  5/  6 1023.7
$$


>>>>>>>>>>>>>>>>>>>>>>>>>>>> KEY <<<<<<<<<<<<<<<<<<<<<<<<<<<
>                                                          <
>     SKY/WX - Sky Condition/Present Weather               <
>     TMP    - Temperature in Fahrenheit                   <
>     DP     - Dew Point in Fahrenheit                     <
>     RH     - Relative Humidity in Percent                <
>     WIND   - Direction (from) and Speed in MPH           <
>     PRES   - Mean Sea Level Pressure (inches of Hg)      <
>     WCI    - Wind Chill Index                            <
>     VSB    - VISIBILITY IN MILES                         <
>     HX     - HEAT INDEX                                  <
>     TC     - TEMPERATURE IN CELSIUS                      <
>     VRB    - VARIABLE WIND DIRECTION                     <
>                                                          <
>>>>>>>>>>>>>>>>>>>>>>>>>>>> KEY <<<<<<<<<<<<<<<<<<<<<<<<<<<




USA.gov is the U.S. government's official web portal to all federal, state and local government web resources and services.